Notices

What's New in latest Release from April 7th, 2021:

- Updated Glossary, including Speed of Maximum Gust, and Total Hourly Precipitation

- Updated national and regional climate services offices contacts and prices information

- Addition of station inventory lists for 1981-2010, 1971-2000, and 1961-1990 Normals.

If you haven't already, please take our survey and provide feedback about our website: https://eccc.sondage-survey.ca/f/LanguageSelection.aspx?s=442ca660-fcf1-47c0-95a9-59707d6fd709

Hourly Data Report for March 27, 2021

NANAIMO A
BRITISH COLUMBIA
Current Station Operator: NAVCAN

49°03'16.000" N
123°52'12.000" W
28.00 m
1025365
YCD

Download Data

Hourly Data (March 2021)
Hourly Data Report for March 27, 2021
TIME
LST
Temp Definition
°C
Dew Point Definition
°C
Rel Hum Definition
%
Precip. Amount Definition
mm

Wind Dir Definition
10's deg

Wind Spd Definition
km/h
Visibility Definition
km
Stn Press Definition
kPa
Hmdx Definition


Wind Chill Definition


Weather Definition


00:00 3.2 2.7 97 LegendMM 23 2 LegendMM 102.42     LegendNANA
01:00 2.9 2.6 98 LegendMM 18 8 LegendMM 102.47     LegendNANA
02:00 2.4 2.3 99 LegendMM 22 1 LegendMM 102.50     LegendNANA
03:00 2.4 2.2 99 LegendMM 24 4 LegendMM 102.48     LegendNANA
04:00 1.2 0.8 97 LegendMM 5 3 LegendMM 102.50     LegendNANA
05:00 1.7 1.5 99 LegendMM 23 3 LegendMM 102.52     LegendNANA
06:00 1.5 1.4 99 LegendMM 21 3 LegendMM 102.53     LegendNANA
07:00 3.5 2.5 93 LegendMM 14 3 LegendMM 102.56     LegendNANA
08:00 5.3 3.8 90 LegendMM 17 4 LegendMM 102.57     LegendNANA
09:00 7.9 5.0 81 LegendMM 7 3 LegendMM 102.54     LegendNANA
10:00 9.0 4.4 73 LegendMM 7 11 LegendMM 102.51     LegendNANA
11:00 10.2 4.5 68 LegendMM 10 6 LegendMM 102.47     LegendNANA
12:00 11.3 4.5 63 LegendMM 13 18 LegendMM 102.41     LegendNANA
13:00 11.0 5.3 68 LegendMM 7 9 LegendMM 102.38     LegendNANA
14:00 10.7 5.5 70 LegendMM 7 9 LegendMM 102.36     LegendNANA
15:00 10.1 5.1 71 LegendMM 6 12 LegendMM 102.30     LegendNANA
16:00 9.1 5.0 75 LegendMM 9 11 LegendMM 102.24     LegendNANA
17:00 8.7 5.1 78 LegendMM 5 8 LegendMM 102.15     LegendNANA
18:00 8.7 5.3 79 LegendMM 6 4 LegendMM 102.11     LegendNANA
19:00 7.6 5.1 84 LegendMM 2 4 LegendMM 102.01     LegendNANA
20:00 6.8 4.9 87 LegendMM 15 5 LegendMM 101.97     LegendNANA
21:00 9.5 3.9 68 LegendMM 22 13 LegendMM 101.95     LegendNANA
22:00 9.6 3.0 63 LegendMM 23 15 LegendMM 101.80     LegendNANA
23:00 8.3 3.2 70 LegendMM 18 10 LegendMM 101.69     LegendNANA

Notes on Data Quality.

Legend

  • E = Estimated
  • M = Missing
  • NA = Not Available*
  • [empty] = Indicates an unobserved value
Date modified: